Location: Augustenthal
(51.7167°N, 10.2833°E)
Time: 12:47:00
(UTC+00:00)

ISS - Visible Passes

Search period start: 20 September 2021 00:00
Search period end: 30 September 2021 00:00
Orbit: 419 x 423 km, 51.6° (Epoch: 20 September)

Date Brightness Start Highest point End Pass type
(mag) Time Alt. Az. Time Alt. Az. Time Alt. Az.
20 Sep -3.6 18:55:35 10° WSW 18:58:54 54° SSE 18:59:51 38° ESE visible
20 Sep -0.8 20:32:18 10° W 20:32:52 14° W 20:32:52 14° W visible
21 Sep -3.2 18:08:52 10° SW 18:12:04 41° SSE 18:14:52 13° E visible
21 Sep -2.8 19:45:23 10° W 19:47:51 45° W 19:47:51 45° W visible
22 Sep -3.9 18:58:29 10° WSW 19:01:52 81° S 19:02:48 45° E visible
22 Sep -0.7 20:35:21 10° W 20:35:47 13° W 20:35:47 13° W visible
23 Sep -3.7 18:11:37 10° WSW 18:14:59 69° SSE 18:17:40 15° E visible
23 Sep -2.4 19:48:25 10° W 19:50:40 39° W 19:50:40 39° W visible
24 Sep -3.8 19:01:30 10° W 19:04:53 89° N 19:05:30 57° E visible
24 Sep -0.4 20:38:22 10° W 20:38:29 11° W 20:38:29 11° W visible
25 Sep -3.8 18:14:34 10° W 18:17:57 89° SSE 18:20:19 18° E visible
25 Sep -1.9 19:51:25 10° W 19:53:18 30° W 19:53:18 30° W visible
26 Sep -3.9 19:04:30 10° W 19:07:52 80° SSW 19:08:06 74° SE visible
27 Sep -3.8 18:17:33 10° W 18:20:56 88° S 18:22:54 23° E visible
27 Sep -1.4 19:54:26 10° W 19:55:53 22° W 19:55:53 22° W visible
28 Sep -3.4 19:07:28 10° W 19:10:42 53° SSW 19:10:42 53° SSW visible
29 Sep -3.6 18:20:29 10° W 18:23:52 67° SSW 18:25:32 27° ESE visible
29 Sep -0.9 19:57:39 10° W 19:58:31 15° WSW 19:58:31 15° WSW visible
